Zurück zum Katalog

BRO-20

AktivWissenschaftSSO
NORAD 66674·PAYLOAD·🇫🇷 France

Gestartet Nov 28, 2025 von Vandenberg Space Force Base

Loading…

Nächste Überflüge (nächste 24 Stunden)

TLE

AktuellSource: Space-Track

Epoche: Sep 13, 2026, 22:18 UTC

1 66674U 25276J   26256.92978182  .00002236  00000-0  11121-3 0  9990
2 66674  97.4096 328.2899 0007640  62.7526 297.4486 15.18623505 43869

Verfolge BRO-20 in Echtzeit mit AllMySat

Download on the App Store